User: anonymous   Login
Location: Vancouver
(49.2500°N, 123.1330°W)
Time: 01:13:51
(UTC-08:00)
Language:

Cosmos 1408 Rocket - Orbit

View from above orbital plane
View from above orbital plane
View from above satellite
View from above satellite

Ground track
Ground track

The orbit data is extracted from the following two-line orbital elements,

1 13553U 82092B   16036.82857132  .00000209  00000-0  22132-4 0  9995
2 13553  82.5714 337.4228 0019982 246.7553 142.4789 14.84018254803278
Epoch (UTC): 05 February 2016 19:53:08
Eccentricity: 0.0019982
inclination: 82.5714°
perigee height: 602 km
apogee height: 630 km
right ascension of ascending node: 337.4228°
argument of perigee: 246.7553°
revolutions per day: 14.84018254
mean anomaly at epoch: 142.4789°
orbit number at epoch: 80327

The dashed part of the orbit path shows where the satellite is in the earth's shadow,  

DLR